[[{"header":{"parameterUnit":"m.s-1","parameterCategory":1,"la1":30.2991,"la2":30.254,"lo1":-89.0895,"lo2":-89.0444,"dy":0.0017,"dx":0.0017,"nx":28,"ny":28,"refTime":"2024-11-27T03:00:00:Z","depth":0,"parameterNumber":2,"parameterNumberName":"U-component_of_WINDS"},"data":[0,0,0,0,0,0,0,0,0,0,0,0,0,0,0,0,0,0,0,0,0,0,0,0,0,0,0,0,0,0,0,0,0,0,0,0,0,0,0,0,0,0,0,0,0,0,0,0,0,0,0,0,0,0,0,0,0,0,-0.7272,-0.7273,0,-0.7365,-0.7366,-0.7367,-0.7429,-0.743,-0.743,-0.743,-0.7524,-0.7526,-0.7528,0,0,0,0,0,0,0,0,0,0,0,0,0,-0.7147,-0.7149,-0.7272,-0.7273,-0.7274,-0.7365,-0.7366,-0.7368,-0.7429,-0.743,-0.743,-0.7431,-0.7524,-0.7526,-0.7529,0,0,0,0,0,0,0,0,0,0,0,0,0,-0.7217,-0.715,-0.7272,-0.7316,-0.7321,-0.7365,-0.7366,-0.7368,-0.7429,-0.743,-0.743,-0.7431,-0.7523,-0.7526,-0.7529,-0.7536,0,0,-0.7539,-0.754,0,0,0,0,0,0,0,0,-0.7213,-0.7221,-0.7308,-0.7313,-0.7318,-0.7386,-0.7357,-0.7424,-0.7429,-0.7388,-0.743,-0.7431,-0.7478,-0.7485,-0.7501,-0.754,-0.7544,-0.7539,-0.7541,-0.7542,-0.7543,0,0,0,0,0,0,0,-0.7208,-0.7218,-0.7309,-0.7309,-0.7316,-0.7331,-0.7342,-0.737,-0.7428,-0.7391,-0.7396,-0.7406,-0.7481,-0.7497,-0.7503,-0.7546,-0.7539,-0.7542,-0.7544,-0.7545,-0.7598,-0.7598,0,0,0,0,0,0,-0.7196,-0.7213,-0.7306,-0.7312,-0.7266,-0.7333,-0.7345,-0.7364,-0.7428,-0.7438,-0.7406,-0.7409,-0.7492,-0.75,-0.7507,-0.7521,-0.7542,-0.7545,-0.7547,-0.7599,-0.7598,-0.7598,0,0,0,0,0,0,-0.7193,-0.7204,-0.7302,-0.7264,-0.7278,-0.7334,-0.7355,-0.7365,-0.7382,-0.7439,-0.7449,-0.7412,-0.7493,-0.7502,-0.7529,-0.7525,-0.7547,-0.7549,-0.7599,-0.7599,-0.7598,-0.7547,0,0,0,0,0,0,-0.719,-0.7203,-0.7205,-0.7264,-0.7279,-0.7322,-0.7355,-0.7367,-0.7388,-0.7393,-0.7448,-0.7457,-0.7494,-0.7524,-0.7532,-0.7529,-0.7552,-0.76,-0.7599,-0.7598,-0.7549,-0.7545,-0.7541,0,0,0,0,0,-0.7185,-0.7187,-0.7205,-0.7216,-0.7284,-0.7322,-0.7331,-0.7373,-0.7387,-0.7391,-0.7428,-0.7456,-0.7524,-0.7526,-0.7536,-0.7534,-0.76,-0.7599,-0.7598,-0.7551,-0.7545,-0.7541,0,0,0,0,0,0,-0.7125,-0.7195,-0.7216,-0.7237,-0.7273,-0.7332,-0.7338,-0.7365,-0.7398,-0.7401,-0.7452,-0.7464,-0.7485,-0.7513,-0.7514,-0.7545,-0.7566,-0.7567,-0.7527,-0.7522,-0.7517,-0.751,-0.7555,0,0,0,0,0,-0.7115,-0.714,-0.7199,-0.7211,-0.7229,-0.728,-0.7298,-0.7328,-0.7367,-0.7382,-0.7421,-0.7458,-0.7488,-0.7506,-0.7537,-0.7554,-0.7567,-0.7558,-0.7553,-0.755,-0.7549,-0.7562,-0.7559,-0.7594,-0.7594,-0.7594,0,0,-0.7093,-0.7134,-0.7146,-0.7201,-0.7232,-0.7257,-0.7292,-0.7317,-0.7336,-0.7386,-0.7414,-0.7443,-0.7488,-0.751,-0.7522,-0.7533,-0.7543,-0.7548,-0.7545,-0.7547,-0.756,-0.7557,-0.7554,-0.7593,-0.7594,-0.7594,0,0,-0.7065,-0.7099,-0.7114,-0.7145,-0.7193,-0.7228,-0.7231,-0.7287,-0.7309,-0.7338,-0.7377,-0.74,-0.745,-0.7481,-0.7503,-0.7491,-0.7518,-0.7499,-0.7476,-0.7488,-0.7485,-0.7482,-0.7478,-0.7476,-0.7499,-0.7499,-0.7499,0,-0.7032,-0.7071,-0.7117,-0.714,-0.7163,-0.7212,-0.7227,-0.7256,-0.7311,-0.7326,-0.7338,-0.7404,-0.7437,-0.7468,-0.7465,-0.7481,-0.7487,-0.7492,-0.7481,-0.748,-0.7478,-0.7475,-0.7473,-0.7496,-0.7497,-0.7497,-0.7497,0,-0.7028,-0.7054,-0.706,-0.7114,-0.7138,-0.7157,-0.7207,-0.7226,-0.7254,-0.7287,-0.7317,-0.736,-0.74,-0.741,-0.7437,-0.7445,-0.7451,-0.7472,-0.7493,-0.7471,-0.7469,-0.7468,-0.7493,-0.7494,-0.7494,-0.7495,0,0,-0.6963,-0.7044,-0.7045,-0.7071,-0.7128,-0.715,-0.7172,-0.7213,-0.7228,-0.7266,-0.7285,-0.7328,-0.7349,-0.7374,-0.7406,-0.7416,-0.7404,-0.7436,-0.7438,-0.7428,-0.7416,-0.74,-0.7397,-0.7423,-0.7423,-0.7423,-0.7413,0,-0.6944,-0.6986,-0.703,-0.7056,-0.7082,-0.713,-0.7149,-0.7187,-0.7219,-0.7246,-0.7282,-0.7312,-0.7337,-0.7352,-0.7365,-0.7403,-0.7402,-0.7404,-0.7442,-0.7443,-0.7429,-0.7396,-0.7379,-0.7366,-0.7412,-0.7412,-0.7412,0,-0.6927,-0.6963,-0.6992,-0.705,-0.7062,-0.7079,-0.7121,-0.7146,-0.719,-0.7213,-0.7243,-0.7277,-0.7303,-0.7323,-0.736,-0.736,-0.7379,-0.74,-0.7401,-0.7405,-0.7425,-0.74,-0.7363,-0.7361,-0.7411,-0.7411,-0.7411,0,-0.6877,-0.6933,-0.6959,-0.6979,-0.7046,-0.7057,-0.7085,-0.7131,-0.7153,-0.719,-0.7205,-0.7245,-0.7266,-0.7296,-0.734,-0.735,-0.7373,-0.7395,-0.7393,-0.7392,-0.7394,-0.7393,-0.736,-0.7407,-0.7407,-0.7407,-0.7407,0,-0.6851,-0.6867,-0.6937,-0.6953,-0.6973,-0.7024,-0.7042,-0.7075,-0.7115,-0.7138,-0.7182,-0.7203,-0.726,-0.7288,-0.7323,-0.7349,-0.7358,-0.7378,-0.7387,-0.7374,-0.7371,-0.7386,-0.7387,-0.7407,-0.7407,-0.7407,-0.7407,0,-0.6798,-0.6846,-0.6876,-0.6939,-0.6955,-0.6967,-0.702,-0.7037,-0.7073,-0.7102,-0.7112,-0.7168,-0.7203,-0.7251,-0.7301,-0.7324,-0.7346,-0.736,-0.7331,-0.7336,-0.733,-0.733,-0.7305,-0.7304,-0.7351,-0.7351,-0.735,0,-0.6778,-0.6792,-0.6856,-0.6875,-0.6902,-0.6932,-0.6956,-0.7007,-0.703,-0.7083,-0.7094,-0.7133,-0.7167,-0.7221,-0.7266,-0.7305,-0.7321,-0.7309,-0.7326,-0.7313,-0.7321,-0.7319,-0.7321,-0.7304,-0.7304,-0.7303,-0.7302,0,-0.6737,-0.6761,-0.6793,-0.6835,-0.6862,-0.6897,-0.6934,-0.6947,-0.7007,-0.7031,-0.7068,-0.7094,-0.7146,-0.7184,-0.7229,-0.7259,-0.7291,-0.7297,-0.7299,-0.7285,-0.7267,-0.7277,-0.7319,-0.7297,-0.7298,-0.7298,-0.7298,-0.7298,-0.67,-0.6715,-0.6763,-0.6798,-0.6832,-0.6866,-0.6886,-0.6926,-0.6957,-0.7004,-0.7033,-0.7069,-0.7115,-0.718,-0.7208,-0.7237,-0.725,-0.7252,-0.7252,-0.7252,-0.7247,-0.7263,-0.7246,-0.7246,-0.7246,-0.7247,-0.7247,0,-0.6661,-0.6695,-0.6728,-0.6779,-0.6807,-0.6836,-0.6879,-0.6901,-0.6932,-0.6973,-0.7006,-0.7049,-0.7087,-0.7137,-0.7178,-0.7192,-0.7208,-0.7202,-0.7201,-0.7207,-0.7234,-0.7228,-0.7188,-0.7188,-0.7188,-0.7188,-0.7188,-0.7188,-0.6645,-0.6672,-0.6701,-0.6747,-0.6781,-0.6817,-0.6839,-0.6871,-0.6904,-0.6951,-0.6983,-0.7016,-0.706,-0.7106,-0.7143,-0.7156,-0.7169,-0.7158,-0.7176,-0.72,-0.7205,-0.721,-0.7205,-0.7161,-0.7161,-0.7147,-0.7147,-0.7147]},{"header":{"parameterUnit":"m.s-1","parameterCategory":1,"la1":30.2991,"la2":30.254,"lo1":-89.0895,"lo2":-89.0444,"dy":0.0017,"dx":0.0017,"nx":28,"ny":28,"refTime":"2024-11-27T03:00:00:Z","depth":0,"parameterNumber":3,"parameterNumberName":"V-component_of_WINDS"},"data":[0,0,0,0,0,0,0,0,0,0,0,0,0,0,0,0,0,0,0,0,0,0,0,0,0,0,0,0,0,0,0,0,0,0,0,0,0,0,0,0,0,0,0,0,0,0,0,0,0,0,0,0,0,0,0,0,0,0,4.6865,4.6864,0,4.6844,4.6844,4.6844,4.6789,4.6788,4.6787,4.6786,4.6766,4.6767,4.6767,0,0,0,0,0,0,0,0,0,0,0,0,0,4.6857,4.6858,4.6865,4.6864,4.6864,4.6844,4.6844,4.6844,4.6789,4.6788,4.6787,4.6785,4.6766,4.6767,4.6767,0,0,0,0,0,0,0,0,0,0,0,0,0,4.6851,4.6858,4.6865,4.6835,4.6832,4.6844,4.6844,4.6844,4.679,4.6788,4.6786,4.6784,4.6766,4.6767,4.6768,4.6808,0,0,4.677,4.6771,0,0,0,0,0,0,0,0,4.6851,4.6851,4.6839,4.6837,4.6833,4.6817,4.6834,4.6832,4.679,4.6806,4.6786,4.6784,4.6785,4.6784,4.6784,4.6807,4.6807,4.677,4.6771,4.6771,4.6771,0,0,0,0,0,0,0,4.6852,4.6852,4.6857,4.6839,4.6836,4.6822,4.682,4.6834,4.6805,4.6804,4.68,4.6798,4.6783,4.6783,4.6783,4.6806,4.677,4.6771,4.6772,4.6772,4.6862,4.6863,0,0,0,0,0,0,4.6857,4.6853,4.6857,4.6856,4.6838,4.6824,4.6821,4.6824,4.6805,4.68,4.68,4.6796,4.6783,4.6782,4.6782,4.6828,4.6771,4.6772,4.6772,4.686,4.6862,4.6864,0,0,0,0,0,0,4.6857,4.6857,4.6858,4.6853,4.6852,4.6826,4.683,4.6825,4.6825,4.6802,4.6797,4.6806,4.6781,4.6781,4.6802,4.6827,4.6772,4.6773,4.6858,4.686,4.6863,4.6921,0,0,0,0,0,0,4.6857,4.6858,4.6873,4.6854,4.6853,4.6878,4.6832,4.6826,4.6827,4.6821,4.6806,4.6802,4.678,4.6801,4.6803,4.6827,4.6774,4.6855,4.6859,4.6862,4.6917,4.6926,4.6933,0,0,0,0,0,4.6857,4.689,4.6874,4.6875,4.6871,4.688,4.6879,4.6853,4.6829,4.6844,4.6829,4.6802,4.6824,4.6804,4.6805,4.683,4.6854,4.6858,4.6862,4.6913,4.6924,4.6933,0,0,0,0,0,0,4.6914,4.6887,4.6869,4.6898,4.6891,4.687,4.6888,4.6865,4.6866,4.6861,4.6829,4.6826,4.6851,4.6843,4.6821,4.6868,4.6834,4.6839,4.6873,4.6883,4.6891,4.6892,4.6775,0,0,0,0,0,4.6929,4.6938,4.6915,4.6943,4.694,4.6915,4.6918,4.6898,4.6891,4.6888,4.6874,4.6868,4.6873,4.6878,4.6881,4.6916,4.6911,4.6934,4.6942,4.6948,4.6953,4.697,4.6979,4.6878,4.6878,4.6878,0,0,4.6962,4.6949,4.6957,4.6954,4.6946,4.6957,4.6913,4.6926,4.6933,4.689,4.6908,4.6899,4.689,4.6917,4.6929,4.6911,4.698,4.6954,4.6959,4.696,4.6975,4.6985,4.6993,4.6881,4.688,4.688,0,0,4.7027,4.7018,4.704,4.7034,4.7023,4.7006,4.7011,4.6994,4.6985,4.7003,4.6971,4.698,4.699,4.6984,4.6983,4.7046,4.7021,4.7048,4.709,4.7107,4.7115,4.7122,4.7144,4.7153,4.7053,4.7053,4.7053,0,4.707,4.7083,4.7054,4.7069,4.7068,4.7029,4.7051,4.7046,4.7038,4.7039,4.7019,4.703,4.7022,4.7047,4.7063,4.7063,4.7068,4.705,4.7116,4.7123,4.7129,4.715,4.7158,4.7056,4.7056,4.7055,4.7055,0,4.7135,4.7145,4.7164,4.7156,4.7158,4.7176,4.7151,4.7156,4.7136,4.7122,4.7141,4.7129,4.7129,4.7134,4.7115,4.7157,4.7146,4.7122,4.7087,4.7143,4.7162,4.7169,4.7061,4.706,4.7059,4.7058,0,0,4.7236,4.7211,4.7219,4.7214,4.72,4.7207,4.7224,4.7223,4.7229,4.7224,4.7237,4.7246,4.7224,4.7222,4.7203,4.7218,4.7268,4.7191,4.7191,4.7206,4.7313,4.7331,4.734,4.7251,4.7253,4.7254,4.7313,0,4.7297,4.7323,4.7297,4.7329,4.7337,4.73,4.7315,4.7308,4.7294,4.73,4.7285,4.7292,4.7262,4.7261,4.7274,4.7259,4.7289,4.7254,4.7263,4.7264,4.7266,4.735,4.7369,4.7426,4.7321,4.7322,4.7323,0,4.7371,4.7369,4.7402,4.7384,4.7387,4.74,4.7398,4.7404,4.7395,4.7384,4.7383,4.7359,4.7374,4.734,4.736,4.7337,4.734,4.7333,4.7334,4.7334,4.7297,4.7352,4.7444,4.7452,4.7334,4.7333,4.7333,0,4.7441,4.7446,4.7466,4.7464,4.7444,4.7454,4.7447,4.7436,4.7438,4.7436,4.7436,4.7437,4.7437,4.7438,4.7415,4.7392,4.7438,4.7402,4.743,4.743,4.7441,4.744,4.7534,4.7443,4.7443,4.7443,4.7442,0,4.7511,4.7532,4.7497,4.7509,4.7531,4.7502,4.7525,4.7514,4.7505,4.7514,4.7483,4.7492,4.7461,4.7468,4.745,4.7469,4.747,4.7462,4.7457,4.7464,4.7465,4.7465,4.746,4.7445,4.7444,4.7444,4.7444,0,4.7592,4.7569,4.7588,4.7568,4.7564,4.7581,4.7564,4.7575,4.7559,4.7572,4.7573,4.7549,4.7555,4.7532,4.7534,4.7522,4.7551,4.7539,4.7554,4.755,4.7578,4.7576,4.7674,4.7686,4.7588,4.7589,4.759,0,4.7638,4.7654,4.7635,4.7639,4.7633,4.7639,4.7641,4.7613,4.7615,4.7606,4.7618,4.7621,4.7622,4.7633,4.7616,4.7618,4.7606,4.764,4.7606,4.7613,4.7606,4.7605,4.7606,4.7647,4.7649,4.765,4.765,0,4.7723,4.7711,4.7713,4.7712,4.7714,4.7712,4.7708,4.7713,4.7683,4.7687,4.7693,4.7693,4.7695,4.7699,4.7697,4.7689,4.7665,4.7661,4.7668,4.7676,4.7683,4.7679,4.7573,4.7659,4.7658,4.7658,4.7657,4.7657,4.7787,4.7799,4.7788,4.7792,4.7785,4.7782,4.7791,4.7776,4.778,4.7779,4.7762,4.7771,4.7761,4.7756,4.7751,4.7758,4.7741,4.7751,4.7753,4.7756,4.776,4.7682,4.7757,4.7757,4.7757,4.7756,4.7756,0,4.787,4.7861,4.7864,4.7859,4.7862,4.7839,4.7833,4.7837,4.7845,4.7838,4.7839,4.7845,4.7849,4.7832,4.7833,4.7841,4.783,4.7843,4.7842,4.784,4.7775,4.7769,4.7852,4.7852,4.7852,4.7852,4.7852,4.7852,4.7913,4.7931,4.7918,4.7933,4.7923,4.7931,4.7929,4.7926,4.792,4.7929,4.7931,4.792,4.7909,4.7909,4.7911,4.7906,4.7907,4.7924,4.7915,4.7854,4.7845,4.7836,4.783,4.7924,4.7925,4.7979,4.798,4.798]}]]